User: anonymous   Login
Location: Unspecified
(0.0000°N, 0.0000°E)
Time: 20:47:46
(UTC+00:00)
Language:

STARLINK-6275 - Orbit

View from above orbital plane
View from above orbital plane
View from above satellite
View from above satellite

Ground track
Ground track

The orbit is defined by the following mean orbital elements,

1 56772U          26145.36981536 +.00000000 +00000-0 +14173-4 0 00009
2 56772  69.9984 171.0931 0003917 267.3988  92.6723 14.98331622    07
Epoch (UTC): 25 May 2026 08:52:32
Eccentricity: 0.0003917
inclination: 69.9984°
perigee height: 569 km
apogee height: 575 km
right ascension of ascending node: 171.0931°
argument of perigee: 267.3988°
revolutions per day: 14.98331622
mean anomaly at epoch: 92.6723°

The dashed part of the orbit path shows where the satellite is in the earth's shadow,  

DLR